Shungnak AP, Shungnak, AK, AK

6:51 AM AKST on December 08, 2019 (GMT -0900)
Shungnak AP, Shungnak, AK

Weather History for PAGH - October, 2019

Change the Weather History Date:

Saturday, October 12, 2019

  Actual Average (PAFM) Record (PAFM)
Temperature  
Mean Temperature 22 °F -  
Max Temperature 30 °F 25 °F 46 °F (2016)
Min Temperature 16 °F 17 °F -9 °F (1988)
Degree Days  
Heating Degree Days 43    
Moisture  
Dew Point 21 °F    
Average Humidity 88    
Maximum Humidity 96    
Minimum Humidity 82    
Precipitation  
Precipitation 0.00 in - - ()
Sea Level Pressure  
Sea Level Pressure 30.20 in    
Wind  
Wind Speed 4 mph (West)    
Max Wind Speed 9 mph    
Max Gust Speed -    
Visibility 10 miles    
Events      
Averages and records for this station are not official NWS values.
T = Trace of Precipitation, MM = Missing Value Source: NWS Daily Summary

Daily Weather History Graph

Daily Weather History Graph

Search for Another Location

Airport or City:

Astronomy

Oct. 12, 2019 Rise Set
Actual Time 9:17 AM AKDT 7:10 PM AKDT
Civil Twilight 8:23 AM AKDT 8:04 PM AKDT
Nautical Twilight 7:22 AM AKDT 9:05 PM AKDT
Astronomical Twilight 6:18 AM AKDT 10:09 PM AKDT
Moon 7:55 PM AKDT (10/12) 7:07 AM AKDT (10/12)
Length of Visible Light 11h 40m
Length of Day
9h 53m
Waxing Gibbous, 99% of the Moon is Illuminated
Oct 12
Waxing Gibbous
Oct 13
Full
Oct 21
Last Quarter
Oct 27
New
Nov 4
First Quarter

Hourly Weather History & Observations

Time (AKDT) Temp. Windchill Dew Point Humidity Pressure Visibility Wind Dir Wind Speed Gust Speed Precip Events Conditions
12:56 AM 23.0 °F 13.1 °F 19.9 °F 88% 30.12 in 10.0 mi WSW 9.2 mph - N/A   Clear
1:56 AM 21.9 °F 13.4 °F 19.0 °F 89% 30.13 in 10.0 mi West 6.9 mph - N/A   Clear
2:56 AM 19.9 °F - 18.0 °F 92% 30.15 in 10.0 mi Calm Calm - N/A   Clear
3:56 AM 19.0 °F 12.3 °F 18.0 °F 96% 30.16 in 10.0 mi WNW 4.6 mph - N/A   Clear
4:56 AM 19.9 °F 13.4 °F 18.0 °F 92% 30.17 in 10.0 mi West 4.6 mph - N/A   Partly Cloudy
5:56 AM 19.9 °F 12.1 °F 18.0 °F 92% 30.18 in 10.0 mi WSW 5.8 mph - N/A   Clear
6:56 AM 19.0 °F 12.3 °F 17.1 °F 92% 30.19 in 10.0 mi West 4.6 mph - N/A   Clear
7:56 AM 17.1 °F - 15.1 °F 92% 30.21 in 10.0 mi Calm Calm - N/A   Clear
8:56 AM 16.0 °F 10.4 °F 15.1 °F 96% 30.22 in 10.0 mi WNW 3.5 mph - N/A   Clear
4:39 PM 28.4 °F 24.6 °F 24.8 °F 86% 30.23 in 10.0 mi ENE 3.5 mph - N/A   Overcast
4:56 PM 28.9 °F - 24.1 °F 82% 30.25 in 10.0 mi Calm Calm - N/A   Overcast
5:56 PM 28.9 °F - 24.1 °F 82% 30.24 in 10.0 mi Calm Calm - N/A   Overcast
6:08 PM 28.4 °F - 24.8 °F 86% 30.21 in 10.0 mi Calm Calm - N/A   Overcast
6:56 PM 28.9 °F 25.2 °F 25.0 °F 85% 30.23 in 10.0 mi ENE 3.5 mph - N/A   Overcast
7:56 PM 28.0 °F - 24.1 °F 85% 30.22 in 10.0 mi Calm Calm - N/A   Overcast
8:56 PM 28.9 °F 25.2 °F 25.0 °F 85% 30.22 in 10.0 mi SE 3.5 mph - N/A   Overcast
9:56 PM 28.9 °F - 26.1 °F 89% 30.22 in 10.0 mi Calm Calm - N/A   Overcast
10:56 PM 28.9 °F 25.2 °F 25.0 °F 85% 30.22 in 10.0 mi SE 3.5 mph - N/A   Overcast
11:56 PM 28.9 °F - 25.0 °F 85% 30.21 in 10.0 mi Calm Calm - N/A   Overcast